922  
ASUS43 KFSD 070010  
RWRFSD  
 
WEATHER ROUNDUP FOR SE SOUTH DAKOTA/SW MINNESOTA/NW IOWA  
NATIONAL WEATHER SERVICE SIOUX FALLS SD  
700 PM CDT THU MAY 06 2021  
 
NOTE: "FAIR" INDICATES FEW OR NO CLOUDS BELOW 12,000 FEET WITH NO  
SIGNIFICANT WEATHER AND OR S TO VISIBILITY
.  
 
 
SDZ038>040-050-052>070-070100-  
SOUTHEAST SOUTH DAKOTA  
 
CITY SKY/WX TMP DP RH WIND PRES REMARKS
 
BROOKINGS SUNNY 60 23 24 W14 30.10F  
CHAMBERLAIN MOSUNNY 66 32 28 NW8 30.13F  
6HR MIN TEMP: 60; 6HR MAX TEMP: 67;  
 
HURON MOSUNNY 66 22 18 NW13 30.10F  
6HR MIN TEMP: 62; 6HR MAX TEMP: 68;  
 
MITCHELL SUNNY 68 21 16 N9 30.11F  
6HR MIN TEMP: 62; 6HR MAX TEMP: 70; 6HR PCP: TRACE;  
 
SIOUX FALLS MOSUNNY 64 31 28 NW10 30.10F  
6HR MIN TEMP: 59; 6HR MAX TEMP: 67;  
 
WINNER MOSUNNY 66 34 30 N13 30.14F  
YANKTON MOSUNNY 65 31 28 NW12G20 30.13F  

 
 
MNZ071-072-080-081-089-090-097-098-070100-  
SOUTHWEST MINNESOTA  
 
CITY SKY/WX TMP DP RH WIND PRES REMARKS
 
FAIRMONT SUNNY 60 20 21 NW14 30.10F  
JACKSON MOSUNNY 61 21 21 W15G25 30.11F  
LUVERNE MOSUNNY 63 23 22 NW10 30.11F  
MARSHALL MOSUNNY 63 24 22 W17 30.07F  
6HR MIN TEMP: 57; 6HR MAX TEMP: 64;  
 
MONTEVIDEO MOSUNNY 63 16 16 NW9G17 30.04F  
REDWOOD FALLS PTSUNNY 62 23 22 W20G29 30.05F  
TRACY MOSUNNY 62 16 16 NW14G21 30.08F  
WINDOM SUNNY 61 21 21 W20 30.09F  
WORTHINGTON MOSUNNY 60 26 27 NW16 30.12F  

 
 
IAZ001>003-012>014-020>022-031-032-NEZ013-014-SDZ071-070100-  
NORTHWEST IOWA  
 
CITY SKY/WX TMP DP RH WIND PRES REMARKS
 
CHEROKEE CLOUDY 61 27 27 NW8 30.13F  
DENISON SUNNY 63 28 27 NW10 30.16F  
ESTHERVILLE SUNNY 59 19 21 NW12 30.11F  
LE MARS PTSUNNY 63 30 29 W12G24 30.12F  
MAURICE FAIR 63 28 27 NW16 30.12F  
SHELDON MOSUNNY 63 21 20 NW14G22 30.10F  
SIOUX CITY PTSUNNY 63 34 33 N9 30.14F  
6HR MIN TEMP: 58; 6HR MAX TEMP: 66;  
 
SPENCER SUNNY 63 24 22 NW15G24 30.12F  
6HR MIN TEMP: 59; 6HR MAX TEMP: 66;  
 
STORM LAKE N/A N/A N/A N/A MISG N/A  

 
 
ABBREVIATIONS USED IN REMARKS  
TC - TEMPERATURE IN CELSIUS  
WCI - WIND CHILL INDEX  
HX - HEAT INDEX  
VSB - VISIBILITY  
 
 
 
CLICK HERE TO GO TO PREVIOUS BULLETINS.

The Nexlab SD Page
The Nexlab IA Page
The Nexlab MN Page
The Nexlab NE Page Main Text Page